Tracking 34717 objects as of 14-Jul-2026
HD Live streaming from Space Station
objects crossing your sky now

BREEZE-M DEB (TANK)

Track BREEZE-M DEB (TANK) now!
10-day predictions


NORAD ID: 32374
Int'l Code: 2007-058B
Perigee: 183.3 km
Apogee: 14,753.8 km
Inclination: 46.0 °
Period: 270.0 minutes
Semi major axis: 13839 km
RCS: 5.0489 m2 (large)
Launch date: December 9, 2007
Source: Commonwealth of Independent States (former USSR) (CIS)
Launch site: TYURATAM MISSILE AND SPACE COMPLEX (TTMTR)

Note: This is SATELLITE DEBRIS
Your satellite tracking list
Your tracking list is empty




NASA's NSSDC Master Catalog

Two Line Element Set (TLE):
1 32374U 07058B   26195.28386022  .00137613  73973-6  13480-2 0  9997
2 32374  46.0177 296.7498 5264099 159.7384 233.2642  5.33238884 36659
Source of the keplerian elements: AFSPC